Theta_e
309 309 310 311 312 312 312 313 313 313 313 314 315 315 316 317 318 318 318 319 318 319 323 321 330 331 348 355 354 356 346 345 341 353 355 352 351 350 351 349 346 348 343 345 348
308 308 308 309 310 310 311 312 312 313 313 314 314 314 315 315 317 318 320 320 320 318 320 325 328 333 340 343 346 345 341 341 338 348 352 351 351 351 350 349 349 347 343 345 348
306 306 307 307 308 308 309 310 311 312 313 313 314 314 314 314 315 319 323 324 325 320 320 326 327 326 330 329 336 336 335 336 345 350 351 351 351 351 350 351 349 345 345 347 349
306 306 306 306 307 307 307 308 309 310 311 313 313 313 313 313 314 323 323 324 323 321 321 324 326 323 325 329 332 331 331 333 343 350 351 351 351 350 350 351 349 343 344 345 349
306 306 306 306 306 307 308 308 308 309 310 311 312 313 313 312 315 319 321 320 322 321 321 323 324 323 325 327 329 329 329 337 345 348 351 351 351 350 350 350 348 345 346 347 347
304 305 305 306 307 308 308 309 309 309 309 310 312 312 311 311 318 318 318 319 320 323 323 323 324 323 325 327 327 328 328 340 342 341 348 351 351 351 348 349 345 347 348 348 348
304 305 305 305 305 307 309 310 310 310 309 310 311 311 310 316 317 321 321 323 320 322 324 324 323 326 326 326 327 326 331 335 336 341 348 351 353 351 347 348 346 347 348 349 349
304 305 305 305 305 305 308 311 310 311 311 311 312 310 311 317 318 318 318 318 320 322 324 326 325 322 324 327 325 323 328 334 334 339 349 343 352 349 347 348 348 348 348 348 349
303 303 304 305 305 306 307 310 317 320 319 315 311 311 313 316 318 319 318 318 321 326 327 328 325 325 326 322 319 319 327 335 337 335 345 340 351 350 346 346 346 346 346 346 348
302 303 303 304 305 306 308 314 317 319 315 313 315 316 316 318 321 322 320 318 319 324 323 325 325 320 316 318 322 323 326 333 337 336 337 342 348 350 349 347 346 346 346 346 345
302 302 303 304 304 305 309 315 314 315 313 314 316 316 318 319 321 322 324 319 318 322 324 324 322 321 322 320 320 323 324 336 339 337 338 339 344 352 349 348 348 348 347 347 347
301 302 302 303 304 305 311 312 308 308 308 315 316 315 318 317 318 320 324 319 320 321 323 323 322 322 322 320 322 322 323 324 330 339 340 337 341 351 350 349 349 349 348 348 348
300 301 302 303 304 308 306 308 309 310 308 313 317 316 317 318 318 320 323 321 319 319 322 324 324 324 324 322 321 322 322 323 330 341 339 338 340 347 348 349 349 349 349 349 349
300 300 300 302 304 304 307 306 310 312 308 312 312 315 316 318 318 321 323 322 320 321 322 323 325 326 323 323 321 321 322 325 328 337 343 340 344 338 344 346 345 346 347 347 348
300 300 300 299 301 303 304 308 311 313 315 318 316 317 316 319 322 321 322 324 319 321 321 323 324 325 325 325 321 322 324 324 328 332 337 339 339 335 338 342 343 343 345 346 346
300 300 299 300 300 302 302 307 312 311 316 320 317 316 317 318 321 323 322 324 323 321 322 322 322 324 324 325 322 323 324 322 323 328 334 334 340 338 338 340 340 341 343 344 345
302 301 300 303 304 302 302 308 309 312 315 318 315 313 316 317 319 322 322 320 320 319 321 322 323 321 323 323 321 321 319 320 324 325 332 331 338 338 336 338 339 339 341 343 344
302 302 300 307 307 306 303 305 310 312 313 313 312 311 314 318 319 322 321 321 318 319 317 320 323 323 321 321 320 318 318 320 326 326 329 327 335 337 335 336 339 339 340 342 343
302 302 304 306 308 306 308 305 308 310 312 312 311 312 312 313 315 320 319 323 321 317 320 320 322 323 321 320 320 319 319 319 322 323 326 326 327 327 329 330 333 339 339 341 342
302 301 304 304 308 306 305 306 306 310 311 310 310 310 311 311 314 316 316 318 322 319 319 320 322 321 324 322 320 319 318 322 318 323 326 324 328 329 328 332 335 338 339 340 341
303 300 300 305 306 306 304 305 308 310 310 310 310 310 310 311 312 313 316 318 320 320 318 318 320 323 323 322 322 317 318 317 318 319 323 325 325 323 328 328 331 338 339 339 341
303 296 303 307 304 303 304 307 309 309 310 309 309 309 309 310 310 312 315 318 321 320 321 318 318 322 322 322 321 319 317 317 318 319 321 322 327 328 327 329 330 336 339 340 340
303 301 304 305 305 305 305 307 309 308 309 309 309 310 308 308 310 311 315 319 319 320 321 318 317 319 322 321 321 322 317 314 314 314 322 326 327 326 326 330 337 339 340 339 340
302 299 304 305 305 307 306 307 309 309 310 309 308 310 310 309 307 310 315 318 316 319 325 325 315 323 323 323 322 321 319 316 317 317 318 322 323 327 325 327 326 337 341 341 340
302 300 303 300 301 303 305 307 308 310 309 308 308 309 309 309 314 313 313 313 315 316 315 317 322 320 322 322 323 323 323 317 317 317 320 321 321 322 322 324 327 332 332 338 341
302 303 302 301 302 304 306 307 308 308 307 308 309 310 309 309 309 309 310 312 313 312 313 312 321 319 323 323 322 325 324 319 318 318 318 320 319 319 324 327 328 332 334 332 337
302 302 301 301 299 304 307 306 306 306 307 308 308 307 308 309 308 308 308 309 310 312 313 315 317 317 324 322 322 324 324 323 321 318 319 320 322 321 324 325 329 334 334 335 335
Wind_Speed
18 19 18 19 20 20 20 21 21 21 20 19 19 18 20 21 21 23 27 21 18 9 7 12 11 9 9 7 10 3 2 3 3 7 7 16 6 14 2 18 6 3 17 36 35
18 19 19 20 20 20 20 21 21 22 22 20 19 19 20 22 24 25 18 16 16 18 14 13 10 9 6 6 7 6 3 6 5 7 13 18 19 18 9 15 4 12 26 37 35
20 20 20 20 21 21 21 20 21 22 22 21 20 18 18 19 23 10 3 3 9 18 15 8 8 5 8 8 9 7 6 7 8 17 27 22 15 9 22 4 13 33 41 40 37
20 21 21 22 23 23 23 22 21 21 21 21 20 18 17 13 7 5 5 5 6 13 20 14 9 7 4 4 5 5 13 12 19 20 20 18 19 10 12 9 28 38 47 43 37
21 21 22 22 23 24 24 24 23 22 21 21 20 18 15 12 29 12 15 19 11 8 15 17 12 6 3 3 6 4 8 10 32 30 28 22 13 7 11 11 25 38 42 42 38
23 23 23 24 24 24 25 25 24 22 21 21 19 18 15 11 20 13 16 22 18 11 12 16 6 6 4 4 2 6 10 9 24 23 27 16 9 8 11 23 32 37 34 39 39
26 26 26 26 26 26 26 25 25 23 21 20 19 18 21 36 14 4 4 5 12 13 13 10 11 7 1 4 8 7 4 4 3 10 5 25 2 4 24 30 34 31 30 32 36
29 28 28 28 28 28 27 26 23 23 20 19 17 17 17 23 18 29 30 27 16 15 15 11 9 8 5 7 9 5 4 4 4 6 14 6 5 10 28 33 29 30 29 30 35
31 31 31 30 29 29 28 22 20 16 12 11 11 11 15 12 20 21 29 26 19 16 15 11 5 7 8 5 5 5 4 3 4 9 9 2 3 20 28 28 29 30 31 32 37
32 33 32 32 31 29 26 21 8 6 2 3 8 4 16 7 4 8 12 25 21 16 19 12 9 4 4 4 6 5 4 4 7 9 5 4 5 18 29 28 30 31 31 32 35
35 34 34 32 30 28 19 9 7 3 10 10 6 11 10 5 11 4 9 27 23 8 7 7 5 7 11 8 6 6 3 4 5 8 6 7 8 21 30 26 25 28 30 33 34
34 36 36 33 30 21 10 7 13 13 17 22 28 34 38 32 11 7 12 17 10 7 5 1 8 9 7 9 4 2 2 3 3 4 4 5 3 15 24 32 34 33 32 35 37
34 34 35 35 29 10 17 5 17 18 7 17 29 25 33 27 17 23 15 19 6 8 7 8 5 9 7 5 7 4 5 4 4 3 4 6 3 9 17 19 27 31 38 37 42
33 34 34 35 19 21 8 15 14 13 4 8 7 10 18 18 10 40 22 20 3 15 8 7 12 8 8 7 6 5 8 3 2 4 4 7 5 8 15 19 16 29 34 35 43
35 35 32 30 33 24 19 12 10 4 5 3 6 2 15 23 13 25 36 18 10 7 8 8 9 11 6 10 8 9 5 8 5 5 1 2 0 7 14 15 22 28 35 38 42
34 35 34 34 34 19 20 15 4 3 9 5 5 4 6 13 3 10 22 22 15 6 3 10 4 9 11 4 10 4 3 7 5 4 2 12 9 6 8 25 24 25 34 38 42
33 33 35 26 23 17 13 8 3 5 7 4 5 6 5 5 6 7 16 14 11 8 13 2 11 3 5 6 4 6 7 1 2 1 6 5 2 11 9 13 23 23 38 42 44
34 31 27 25 27 13 3 3 5 4 7 6 7 9 7 7 7 2 14 13 5 7 5 7 5 11 6 9 8 7 9 6 5 4 4 6 7 16 18 15 24 30 40 40 38
37 31 11 23 23 10 5 3 7 3 5 11 10 6 6 6 3 3 8 20 21 10 8 8 7 2 7 6 13 5 6 9 5 2 3 4 7 10 8 12 14 28 26 34 41
39 33 5 24 19 4 4 5 4 2 8 6 5 6 4 8 6 2 8 7 15 10 7 7 4 5 4 6 5 9 8 4 2 7 5 5 5 6 9 9 9 11 24 34 43
31 14 12 23 2 5 3 6 6 3 15 7 4 5 4 4 5 5 4 3 10 16 9 7 4 3 7 7 10 4 4 4 6 5 7 3 7 8 9 10 11 15 29 34 42
18 4 19 22 4 3 1 8 11 15 13 7 6 8 7 6 4 3 4 4 13 5 17 9 6 6 7 4 8 8 10 8 5 5 1 5 11 6 9 9 11 17 27 39 43
20 8 12 13 4 4 8 6 5 8 5 5 5 9 10 6 5 6 5 3 19 10 9 9 4 3 4 6 2 5 5 6 5 4 8 7 9 3 6 5 6 15 24 28 39
8 4 8 6 3 4 7 5 7 14 5 10 6 9 7 8 8 7 8 5 16 8 11 2 6 21 12 5 6 6 6 7 8 5 6 7 6 5 6 5 5 12 24 33 37
3 3 3 4 5 5 5 5 9 7 6 12 7 11 7 4 1 3 3 6 5 13 8 2 15 9 15 8 6 7 6 10 9 8 9 11 9 9 10 10 14 17 14 33 38
4 4 7 11 11 5 2 1 7 8 4 5 9 17 5 4 5 5 4 2 4 7 7 7 2 7 11 15 9 7 8 9 8 4 5 6 9 10 22 22 16 21 19 29 36
5 7 3 8 5 2 2 5 6 17 9 10 8 5 6 6 14 22 20 16 9 2 3 4 2 5 19 5 6 7 18 8 5 5 9 8 15 8 7 10 14 8 13 18 30
Wind_Direction
338 335 328 319 314 307 305 305 304 302 300 302 303 302 302 300 296 290 280 289 284 267 211 216 196 193 199 227 234 244 10 260 262 152 139 150 130 156 167 143 144 127 156 159 157
338 333 330 325 321 317 311 306 301 297 296 296 297 299 300 303 303 290 296 273 251 236 227 206 195 186 197 218 204 177 186 243 229 150 152 165 152 156 130 158 100 115 148 155 159
339 335 332 327 323 319 314 310 306 302 295 291 291 294 297 304 311 287 135 19 243 224 207 194 180 211 223 215 204 199 213 213 164 166 155 153 147 146 145 196 182 150 153 162 165
341 336 333 329 325 320 315 311 307 303 299 290 287 287 289 292 273 181 186 45 47 200 193 203 208 198 213 230 235 268 239 216 173 166 150 160 151 141 174 210 188 172 162 164 171
342 337 333 329 324 320 315 310 306 301 296 290 285 281 279 260 249 246 271 276 286 236 205 203 196 190 206 237 302 229 266 175 156 159 169 155 158 144 225 165 166 159 164 169 172
341 336 332 328 324 320 314 309 304 300 292 287 280 273 262 244 277 279 246 244 251 231 224 216 174 216 255 250 262 289 331 146 157 162 164 144 144 129 150 155 155 160 168 173 177
339 335 332 330 326 322 315 309 306 297 287 280 273 264 250 246 254 226 209 224 228 233 239 252 238 206 306 303 319 324 66 72 12 142 128 118 94 169 158 157 161 171 177 182 188
338 334 332 330 329 324 316 316 308 294 281 271 265 257 253 267 253 248 248 261 255 231 236 252 260 216 194 306 330 40 49 128 212 151 161 130 189 155 163 158 170 177 187 194 197
338 335 332 330 330 325 322 323 313 307 284 256 246 235 268 250 243 245 235 233 225 219 232 242 223 187 148 118 1 22 156 186 177 225 155 75 140 167 171 171 175 186 192 196 205
339 336 334 331 332 328 330 330 328 354 24 227 208 259 244 243 234 283 230 219 213 217 235 242 212 137 95 112 186 194 213 208 180 199 187 161 168 168 178 180 186 191 196 201 207
339 336 334 332 334 333 340 357 346 297 297 240 232 244 270 295 238 237 244 188 202 202 160 199 156 194 186 171 163 146 130 222 210 203 143 191 154 178 184 189 193 201 200 205 208
340 337 335 330 333 333 357 34 18 331 295 282 269 257 253 258 299 249 196 163 167 184 157 64 212 213 117 151 162 181 167 258 288 148 120 165 218 186 186 198 195 198 203 206 212
342 338 335 328 332 338 338 19 339 332 252 283 254 246 241 232 223 246 189 188 149 171 177 199 237 149 160 156 162 204 180 207 155 84 63 113 10 185 210 213 212 213 208 209 212
341 338 339 329 331 329 341 318 324 323 299 269 227 244 196 192 233 230 214 194 167 196 142 214 236 189 145 187 141 190 208 144 168 111 212 169 241 221 200 215 213 214 212 210 218
339 338 336 332 314 322 316 318 310 310 313 199 188 296 177 170 143 203 204 192 180 161 139 224 198 190 169 203 157 222 139 179 161 202 113 283 58 264 188 215 219 215 214 213 218
337 336 333 326 315 325 313 312 303 48 244 308 133 143 125 228 261 127 172 203 204 165 133 210 209 164 209 153 184 88 83 49 66 116 175 232 193 250 183 215 222 219 216 216 215
336 335 342 343 341 309 305 310 71 198 323 341 358 29 278 204 244 160 168 175 173 150 201 171 231 218 153 168 203 110 87 307 341 108 214 192 184 235 227 220 214 209 214 214 215
337 332 349 12 357 330 230 58 208 234 273 6 339 295 196 159 232 189 153 180 202 128 135 163 219 205 193 183 178 172 153 155 175 208 222 79 221 248 233 230 227 223 218 208 211
336 335 13 2 349 341 173 174 210 260 7 334 324 29 327 347 4 151 181 193 190 182 155 154 237 251 181 169 160 196 156 183 136 31 74 221 284 311 249 268 225 220 208 203 211
340 337 21 352 336 164 70 246 260 331 359 354 16 1 325 325 17 155 176 188 192 181 156 192 191 210 175 141 211 163 170 99 348 170 206 269 258 229 283 247 240 227 195 202 216
347 336 350 347 21 173 173 240 294 343 359 350 325 302 301 292 353 313 261 255 171 194 161 147 125 262 185 191 177 133 161 62 125 140 171 205 262 207 232 247 231 217 204 203 212
352 335 341 351 76 14 18 312 300 302 323 255 257 227 241 278 294 292 260 11 351 223 197 192 160 215 198 206 181 173 176 158 139 216 186 169 256 198 225 255 223 216 208 211 214
330 291 358 6 48 347 313 294 286 2 317 312 298 281 283 288 293 234 273 7 12 23 197 169 196 189 291 300 154 178 170 124 113 106 189 153 251 285 286 8 263 199 217 222 219
328 339 341 24 74 359 344 314 326 330 282 339 256 315 286 258 211 272 343 320 337 13 351 257 150 211 220 218 147 160 161 168 151 153 174 221 240 272 276 266 240 225 241 228 222
307 281 6 306 328 311 338 308 328 336 320 330 334 344 309 263 306 178 328 312 307 3 1 95 208 188 210 183 158 181 170 169 181 186 182 229 196 222 248 281 288 306 261 233 225
299 331 332 291 300 326 329 3 298 330 279 310 350 329 14 59 355 314 360 295 273 330 2 342 271 149 228 212 197 213 211 181 199 182 194 233 244 192 222 236 264 267 266 220 218
322 298 296 279 309 328 352 323 309 306 299 303 319 314 316 307 313 280 260 262 243 295 307 17 67 135 228 183 116 258 222 179 170 172 162 203 235 178 202 205 231 220 234 222 220